Time,TemperatureF,DewpointF,PressureIn,WindDirection,WindDirectionDegrees,WindSpeedMPH,WindSpeedGustMPH,Humidity,HourlyPrecipIn,Conditions,Clouds,dailyrainin,SolarRadiationWatts/m^2,SoftwareType,DateUTC
2013-04-08 00:02:00,45.2,38.8,29.97,South,172,0.0,4.0,78,0.00,OVC,OVC,0.00,0.0,WeatherDisplay:10.37,2013-04-08 04:02:00,
2013-04-08 00:07:00,45.2,39.1,29.97,South,170,1.0,5.0,79,0.00,OVC,OVC,0.00,0.0,WeatherDisplay:10.37,2013-04-08 04:07:00,
2013-04-08 00:12:00,45.1,39.0,29.97,South,189,0.0,4.0,79,0.00,OVC,OVC,0.00,0.0,WeatherDisplay:10.37,2013-04-08 04:12:00,
2013-04-08 00:17:00,45.1,38.9,29.97,SSW,196,1.0,5.0,79,0.00,OVC,OVC,0.00,0.0,WeatherDisplay:10.37,2013-04-08 04:17:00,
2013-04-08 00:22:00,45.0,39.2,29.97,South,191,0.0,3.0,80,0.00,OVC,OVC,0.00,0.0,WeatherDisplay:10.37,2013-04-08 04:22:00,
2013-04-08 00:27:00,45.0,38.9,29.97,SSW,200,0.0,0.0,79,0.00,OVC,OVC,0.00,0.0,WeatherDisplay:10.37,2013-04-08 04:27:00,
2013-04-08 00:32:00,45.0,39.2,29.97,SSW,195,1.0,4.0,80,0.00,OVC,OVC,0.00,0.0,WeatherDisplay:10.37,2013-04-08 04:32:00,
2013-04-08 00:42:00,45.0,39.2,29.97,SW,222,0.0,4.0,80,0.00,OVC,OVC,0.00,0.0,WeatherDisplay:10.37,2013-04-08 04:42:00,
2013-04-08 00:47:00,44.9,39.4,29.97,South,189,0.0,2.0,81,0.00,OVC,OVC,0.00,0.0,WeatherDisplay:10.37,2013-04-08 04:47:00,
2013-04-08 00:52:00,44.8,39.4,29.97,South,169,0.0,0.0,81,0.00,OVC,OVC,0.00,0.0,WeatherDisplay:10.37,2013-04-08 04:52:00,
2013-04-08 00:57:00,44.8,39.3,29.97,SSW,202,1.0,3.0,81,0.00,OVC,OVC,0.00,0.0,WeatherDisplay:10.37,2013-04-08 04:57:00,
2013-04-08 01:02:00,44.8,39.6,29.97,SW,222,0.0,0.0,82,0.00,OVC,OVC,0.00,0.0,WeatherDisplay:10.37,2013-04-08 05:02:00,
2013-04-08 01:12:00,44.8,39.6,29.97,SSE,167,0.0,4.0,82,0.00,OVC,OVC,0.00,0.0,WeatherDisplay:10.37,2013-04-08 05:12:00,
2013-04-08 01:17:00,44.7,39.5,29.96,SSW,192,0.0,0.0,82,0.00,OVC,OVC,0.00,0.0,WeatherDisplay:10.37,2013-04-08 05:17:00,
2013-04-08 01:22:00,44.7,39.5,29.96,SSW,192,0.0,0.0,82,0.00,OVC,OVC,0.00,0.0,WeatherDisplay:10.37,2013-04-08 05:22:00,
2013-04-08 01:32:00,44.7,39.9,29.96,SSW,207,0.0,4.0,83,0.00,OVC,OVC,0.00,0.0,WeatherDisplay:10.37,2013-04-08 05:32:00,
2013-04-08 01:37:00,44.7,39.9,29.96,SSW,205,0.0,0.0,83,0.00,OVC,OVC,0.00,0.0,WeatherDisplay:10.37,2013-04-08 05:37:00,
2013-04-08 01:42:00,44.7,39.8,29.96,SSW,198,0.0,0.0,83,0.00,OVC,OVC,0.00,0.0,WeatherDisplay:10.37,2013-04-08 05:42:00,
2013-04-08 01:47:00,44.7,39.8,29.96,SSW,199,0.0,1.0,83,0.00,OVC,OVC,0.00,0.0,WeatherDisplay:10.37,2013-04-08 05:47:00,
2013-04-08 01:52:00,44.6,39.8,29.96,SSW,204,0.0,0.0,83,0.00,OVC,OVC,0.00,0.0,WeatherDisplay:10.37,2013-04-08 05:52:00,
2013-04-08 02:02:00,44.6,40.0,29.96,SSW,208,0.0,0.0,84,0.00,OVC,OVC,0.00,0.0,WeatherDisplay:10.37,2013-04-08 06:02:00,
2013-04-08 02:07:00,44.5,40.0,29.96,SSW,208,0.0,0.0,84,0.00,OVC,OVC,0.00,0.0,WeatherDisplay:10.37,2013-04-08 06:07:00,
2013-04-08 02:12:00,44.5,40.0,29.96,SSW,208,0.0,0.0,84,0.00,OVC,OVC,0.00,0.0,WeatherDisplay:10.37,2013-04-08 06:12:00,
2013-04-08 02:17:00,44.4,39.9,29.96,SSW,208,0.0,0.0,84,0.00,OVC,OVC,0.00,0.0,WeatherDisplay:10.37,2013-04-08 06:17:00,
2013-04-08 02:22:00,44.3,39.8,29.95,SSW,208,0.0,0.0,84,0.00,OVC,OVC,0.00,0.0,WeatherDisplay:10.37,2013-04-08 06:22:00,
2013-04-08 02:27:00,44.3,39.8,29.95,SSW,208,0.0,0.0,84,0.00,OVC,OVC,0.00,0.0,WeatherDisplay:10.37,2013-04-08 06:27:00,
2013-04-08 02:32:00,44.2,40.0,29.95,SSW,208,0.0,1.0,85,0.00,OVC,OVC,0.00,0.0,WeatherDisplay:10.37,2013-04-08 06:32:00,
2013-04-08 02:37:00,44.1,39.9,29.95,SSW,208,0.0,0.0,85,0.00,OVC,OVC,0.00,0.0,WeatherDisplay:10.37,2013-04-08 06:37:00,
2013-04-08 02:42:00,44.0,39.8,29.95,SSW,195,0.0,1.0,85,0.00,OVC,OVC,0.00,0.0,WeatherDisplay:10.37,2013-04-08 06:42:00,
2013-04-08 02:47:00,44.0,40.1,29.94,SSW,192,0.0,2.0,86,0.00,OVC,OVC,0.00,0.0,WeatherDisplay:10.37,2013-04-08 06:47:00,
2013-04-08 02:52:00,44.0,40.0,29.94,SW,222,0.0,1.0,86,0.00,OVC,OVC,0.00,0.0,WeatherDisplay:10.37,2013-04-08 06:52:00,
2013-04-08 02:57:00,43.9,40.0,29.94,WSW,239,0.0,2.0,86,0.00,OVC,OVC,0.00,0.0,WeatherDisplay:10.37,2013-04-08 06:57:00,
2013-04-08 03:02:00,43.8,39.9,29.94,WSW,239,0.0,0.0,86,0.00,OVC,OVC,0.00,0.0,WeatherDisplay:10.37,2013-04-08 07:02:00,
2013-04-08 03:07:00,43.8,40.2,29.94,WSW,239,0.0,2.0,87,0.00,OVC,OVC,0.00,0.0,WeatherDisplay:10.37,2013-04-08 07:07:00,
2013-04-08 03:17:00,43.8,40.2,29.94,WSW,238,0.0,0.0,87,0.00,OVC,OVC,0.00,0.0,WeatherDisplay:10.37,2013-04-08 07:17:00,
2013-04-08 03:27:00,43.8,40.2,29.93,WSW,238,0.0,0.0,87,0.00,OVC,OVC,0.00,0.0,WeatherDisplay:10.37,2013-04-08 07:27:00,
2013-04-08 03:32:00,43.8,40.2,29.93,WSW,237,0.0,3.0,87,0.00,OVC,OVC,0.00,0.0,WeatherDisplay:10.37,2013-04-08 07:32:00,
2013-04-08 03:37:00,43.7,40.1,29.93,WSW,244,0.0,4.0,87,0.00,OVC,OVC,0.00,0.0,WeatherDisplay:10.37,2013-04-08 07:37:00,
2013-04-08 03:42:00,43.7,40.1,29.93,WSW,254,0.0,1.0,87,0.00,OVC,OVC,0.00,0.0,WeatherDisplay:10.37,2013-04-08 07:42:00,
2013-04-08 03:47:00,43.6,40.3,29.93,West,260,0.0,2.0,88,0.00,OVC,OVC,0.00,0.0,WeatherDisplay:10.37,2013-04-08 07:47:00,
2013-04-08 03:57:00,43.6,40.3,29.93,WNW,299,0.0,1.0,88,0.00,OVC,OVC,0.00,0.0,WeatherDisplay:10.37,2013-04-08 07:57:00,
2013-04-08 04:02:00,43.6,40.3,29.93,West,272,0.0,1.0,88,0.00,OVC,OVC,0.00,0.0,WeatherDisplay:10.37,2013-04-08 08:02:00,
2013-04-08 04:07:00,43.5,40.2,29.93,West,268,0.0,0.0,88,0.00,OVC,OVC,0.00,0.0,WeatherDisplay:10.37,2013-04-08 08:07:00,
2013-04-08 04:12:00,43.5,40.2,29.94,West,268,0.0,0.0,88,0.00,OVC,OVC,0.00,0.0,WeatherDisplay:10.37,2013-04-08 08:12:00,
2013-04-08 04:17:00,43.4,40.1,29.94,West,268,0.0,0.0,88,0.00,OVC,OVC,0.00,0.0,WeatherDisplay:10.37,2013-04-08 08:17:00,
2013-04-08 04:22:00,43.3,40.0,29.94,West,268,0.0,0.0,88,0.00,OVC,OVC,0.00,0.0,WeatherDisplay:10.37,2013-04-08 08:22:00,
2013-04-08 04:27:00,43.1,39.8,29.94,West,268,0.0,0.0,88,0.00,OVC,OVC,0.00,0.0,WeatherDisplay:10.37,2013-04-08 08:27:00,
2013-04-08 04:32:00,42.9,39.6,29.94,West,268,0.0,0.0,88,0.00,OVC,OVC,0.00,0.0,WeatherDisplay:10.37,2013-04-08 08:32:00,
2013-04-08 04:37:00,42.8,39.8,29.94,West,268,0.0,0.0,89,0.00,OVC,OVC,0.00,0.0,WeatherDisplay:10.37,2013-04-08 08:37:00,
2013-04-08 04:42:00,42.7,39.7,29.94,West,268,0.0,1.0,89,0.00,OVC,OVC,0.00,0.0,WeatherDisplay:10.37,2013-04-08 08:42:00,
2013-04-08 04:47:00,42.6,39.6,29.94,West,268,0.0,0.0,89,0.00,OVC,OVC,0.00,0.0,WeatherDisplay:10.37,2013-04-08 08:47:00,
2013-04-08 04:52:00,42.6,39.6,29.94,West,268,0.0,1.0,89,0.00,OVC,OVC,0.00,0.0,WeatherDisplay:10.37,2013-04-08 08:52:00,
2013-04-08 04:57:00,42.6,39.9,29.94,West,268,0.0,0.0,90,0.00,OVC,OVC,0.00,0.0,WeatherDisplay:10.37,2013-04-08 08:57:00,
2013-04-08 05:02:00,42.6,39.9,29.94,West,268,0.0,1.0,90,0.00,OVC,OVC,0.00,0.0,WeatherDisplay:10.37,2013-04-08 09:02:00,
2013-04-08 05:07:00,42.6,39.8,29.94,West,268,0.0,2.0,90,0.00,OVC,OVC,0.00,0.0,WeatherDisplay:10.37,2013-04-08 09:07:00,
2013-04-08 05:12:00,42.5,39.8,29.94,West,268,0.0,0.0,90,0.00,OVC,OVC,0.00,0.0,WeatherDisplay:10.37,2013-04-08 09:12:00,
2013-04-08 05:17:00,42.5,39.8,29.94,West,268,0.0,0.0,90,0.00,OVC,OVC,0.00,0.0,WeatherDisplay:10.37,2013-04-08 09:17:00,
2013-04-08 05:22:00,42.5,39.8,29.94,West,268,0.0,0.0,90,0.00,OVC,OVC,0.00,0.0,WeatherDisplay:10.37,2013-04-08 09:22:00,
2013-04-08 05:27:00,42.5,39.8,29.94,West,268,0.0,0.0,90,0.00,OVC,OVC,0.00,0.0,WeatherDisplay:10.37,2013-04-08 09:27:00,
2013-04-08 05:37:00,42.4,39.7,29.94,West,268,0.0,0.0,90,0.00,OVC,OVC,0.00,0.0,WeatherDisplay:10.37,2013-04-08 09:37:00,
2013-04-08 05:42:00,42.3,39.6,29.94,West,268,0.0,0.0,90,0.00,OVC,OVC,0.00,0.0,WeatherDisplay:10.37,2013-04-08 09:42:00,
2013-04-08 05:47:00,42.3,39.6,29.95,West,268,0.0,0.0,90,0.00,OVC,OVC,0.00,0.0,WeatherDisplay:10.37,2013-04-08 09:47:00,
2013-04-08 05:52:00,42.2,39.8,29.95,West,268,0.0,0.0,91,0.00,OVC,OVC,0.00,0.0,WeatherDisplay:10.37,2013-04-08 09:52:00,
2013-04-08 06:07:00,42.1,39.6,29.95,West,268,0.0,0.0,91,0.00,OVC,OVC,0.00,0.0,WeatherDisplay:10.37,2013-04-08 10:07:00,
2013-04-08 06:12:00,42.0,39.6,29.95,West,268,0.0,0.0,91,0.00,OVC,OVC,0.00,0.0,WeatherDisplay:10.37,2013-04-08 10:12:00,
2013-04-08 06:17:00,42.0,39.6,29.95,West,268,0.0,0.0,91,0.00,OVC,OVC,0.00,0.0,WeatherDisplay:10.37,2013-04-08 10:17:00,
2013-04-08 06:22:00,42.0,39.5,29.95,West,268,0.0,0.0,91,0.00,OVC,OVC,0.00,7.0,WeatherDisplay:10.37,2013-04-08 10:22:00,
2013-04-08 06:27:00,42.0,39.6,29.96,SW,214,0.0,4.0,91,0.00,OVC,OVC,0.00,11.0,WeatherDisplay:10.37,2013-04-08 10:27:00,
2013-04-08 06:32:00,42.0,39.6,29.96,South,184,0.0,0.0,91,0.00,OVC,OVC,0.00,16.0,WeatherDisplay:10.37,2013-04-08 10:32:00,
2013-04-08 06:37:00,42.0,39.6,29.96,South,183,0.0,0.0,91,0.00,OVC,OVC,0.00,19.0,WeatherDisplay:10.37,2013-04-08 10:37:00,
2013-04-08 06:47:00,42.0,39.6,29.96,South,183,0.0,0.0,91,0.00,OVC,OVC,0.00,32.0,WeatherDisplay:10.37,2013-04-08 10:47:00,
2013-04-08 06:52:00,42.0,39.6,29.96,SSW,193,0.0,0.0,91,0.00,OVC,OVC,0.00,39.0,WeatherDisplay:10.37,2013-04-08 10:52:00,
2013-04-08 06:57:00,42.0,39.6,29.96,WNW,301,0.0,2.0,91,0.00,OVC,OVC,0.00,44.0,WeatherDisplay:10.37,2013-04-08 10:57:00,
2013-04-08 07:12:00,42.1,39.7,29.97,NW,323,0.0,0.0,91,0.00,OVC,OVC,0.00,60.0,WeatherDisplay:10.37,2013-04-08 11:12:00,
2013-04-08 07:17:00,42.2,40.0,29.97,NW,323,0.0,0.0,92,0.00,OVC,OVC,0.00,67.0,WeatherDisplay:10.37,2013-04-08 11:17:00,
2013-04-08 07:22:00,42.3,40.1,29.98,NW,323,0.0,0.0,92,0.00,OVC,OVC,0.00,76.0,WeatherDisplay:10.37,2013-04-08 11:22:00,
2013-04-08 07:32:00,42.5,40.3,29.98,NW,323,0.0,0.0,92,0.00,OVC,OVC,0.00,90.0,WeatherDisplay:10.37,2013-04-08 11:32:00,
2013-04-08 07:42:00,42.8,40.6,29.98,NW,323,0.0,0.0,92,0.00,OVC,OVC,0.00,93.0,WeatherDisplay:10.37,2013-04-08 11:42:00,
2013-04-08 07:47:00,43.0,40.8,29.98,NW,323,0.0,0.0,92,0.00,OVC,OVC,0.00,91.0,WeatherDisplay:10.37,2013-04-08 11:47:00,
2013-04-08 07:57:00,43.4,41.2,29.98,NW,322,0.0,0.0,92,0.00,OVC,OVC,0.00,109.0,WeatherDisplay:10.37,2013-04-08 11:57:00,
2013-04-08 08:02:00,43.7,41.5,29.98,NW,322,0.0,0.0,92,0.00,OVC,OVC,0.00,118.0,WeatherDisplay:10.37,2013-04-08 12:02:00,
2013-04-08 08:07:00,43.9,41.5,29.98,NW,322,0.0,0.0,91,0.00,OVC,OVC,0.00,127.0,WeatherDisplay:10.37,2013-04-08 12:07:00,
2013-04-08 08:12:00,44.2,41.7,29.98,NW,322,0.0,0.0,91,0.00,OVC,OVC,0.00,127.0,WeatherDisplay:10.37,2013-04-08 12:12:00,
2013-04-08 08:17:00,44.5,41.7,29.99,NW,322,0.0,1.0,90,0.00,OVC,OVC,0.00,130.0,WeatherDisplay:10.37,2013-04-08 12:17:00,
2013-04-08 08:22:00,44.7,41.7,29.99,NW,322,0.0,0.0,89,0.00,OVC,OVC,0.00,125.0,WeatherDisplay:10.37,2013-04-08 12:22:00,
2013-04-08 08:27:00,44.9,41.9,29.99,NW,322,0.0,0.0,89,0.00,OVC,OVC,0.00,134.0,WeatherDisplay:10.37,2013-04-08 12:27:00,
2013-04-08 08:32:00,45.1,41.7,29.99,NW,322,0.0,1.0,88,0.00,OVC,OVC,0.00,148.0,WeatherDisplay:10.37,2013-04-08 12:32:00,
2013-04-08 08:42:00,45.6,41.9,29.99,NW,322,0.0,0.0,87,0.00,OVC,OVC,0.00,139.0,WeatherDisplay:10.37,2013-04-08 12:42:00,
2013-04-08 08:47:00,45.8,42.2,29.99,NW,322,0.0,0.0,87,0.00,OVC,OVC,0.00,123.0,WeatherDisplay:10.37,2013-04-08 12:47:00,
2013-04-08 08:57:00,46.3,41.8,29.99,NW,322,1.0,2.0,84,0.00,BKN,BKN,0.00,371.0,WeatherDisplay:10.37,2013-04-08 12:57:00,
2013-04-08 09:02:00,46.9,42.3,29.99,NW,322,0.0,1.0,84,0.00,CLR,CLR,0.00,388.0,WeatherDisplay:10.37,2013-04-08 13:02:00,
2013-04-08 09:07:00,47.6,42.7,29.99,NW,322,0.0,1.0,83,0.00,CLR,CLR,0.00,408.0,WeatherDisplay:10.37,2013-04-08 13:07:00,
2013-04-08 09:12:00,48.5,42.6,29.99,NW,322,0.0,1.0,80,0.00,CLR,CLR,0.00,403.0,WeatherDisplay:10.37,2013-04-08 13:12:00,
2013-04-08 09:17:00,49.2,42.3,29.99,WNW,299,1.0,6.0,77,0.00,CLR,CLR,0.00,255.0,WeatherDisplay:10.37,2013-04-08 13:17:00,
2013-04-08 09:27:00,50.0,41.3,29.99,West,278,3.0,7.0,72,0.00,CLR,CLR,0.00,0.0,WeatherDisplay:10.37,2013-04-08 13:27:00,
2013-04-08 09:32:00,50.3,41.3,29.99,WNW,297,0.0,2.0,71,0.00,CLR,CLR,0.00,0.0,WeatherDisplay:10.37,2013-04-08 13:32:00,
2013-04-08 09:37:00,50.4,40.6,29.99,WNW,302,2.0,5.0,69,0.00,CLR,CLR,0.00,190.0,WeatherDisplay:10.37,2013-04-08 13:37:00,
2013-04-08 09:42:00,50.6,40.4,30.00,WNW,285,1.0,5.0,68,0.00,CLR,CLR,0.00,0.0,WeatherDisplay:10.37,2013-04-08 13:42:00,
2013-04-08 09:52:00,51.1,40.5,30.00,West,275,0.0,5.0,67,0.00,CLR,CLR,0.00,264.0,WeatherDisplay:10.37,2013-04-08 13:52:00,
2013-04-08 09:57:00,51.4,40.8,30.00,WNW,286,0.0,3.0,67,0.00,CLR,CLR,0.00,0.0,WeatherDisplay:10.37,2013-04-08 13:57:00,
2013-04-08 10:02:00,52.0,41.4,30.00,NW,305,1.0,5.0,67,0.00,CLR,CLR,0.00,422.0,WeatherDisplay:10.37,2013-04-08 14:02:00,
2013-04-08 10:07:00,52.6,41.2,30.01,NW,316,1.0,13.0,65,0.00,CLR,CLR,0.00,399.0,WeatherDisplay:10.37,2013-04-08 14:07:00,
2013-04-08 10:12:00,53.1,40.4,30.01,WNW,289,2.0,6.0,62,0.00,CLR,CLR,0.00,559.0,WeatherDisplay:10.37,2013-04-08 14:12:00,
2013-04-08 10:17:00,53.6,40.5,30.01,West,279,2.0,7.0,61,0.00,CLR,CLR,0.00,330.0,WeatherDisplay:10.37,2013-04-08 14:17:00,
2013-04-08 10:22:00,53.7,40.1,30.01,West,267,1.0,7.0,60,0.00,CLR,CLR,0.00,299.0,WeatherDisplay:10.37,2013-04-08 14:22:00,
2013-04-08 10:27:00,53.7,39.7,30.01,West,265,0.0,4.0,59,0.00,CLR,CLR,0.00,0.0,WeatherDisplay:10.37,2013-04-08 14:27:00,
2013-04-08 10:32:00,53.7,40.1,30.01,West,271,0.0,4.0,60,0.00,CLR,CLR,0.00,292.0,WeatherDisplay:10.37,2013-04-08 14:32:00,
2013-04-08 10:37:00,53.8,39.4,30.02,West,273,2.0,5.0,58,0.00,CLR,CLR,0.00,0.0,WeatherDisplay:10.37,2013-04-08 14:37:00,
2013-04-08 10:42:00,53.8,39.4,30.02,West,271,2.0,6.0,58,0.00,CLR,CLR,0.00,394.0,WeatherDisplay:10.37,2013-04-08 14:42:00,
2013-04-08 10:47:00,53.9,39.9,30.02,West,274,5.0,7.0,59,0.00,CLR,CLR,0.00,0.0,WeatherDisplay:10.37,2013-04-08 14:47:00,
2013-04-08 10:52:00,53.9,39.9,30.02,West,267,2.0,9.0,59,0.00,CLR,CLR,0.00,0.0,WeatherDisplay:10.37,2013-04-08 14:52:00,
2013-04-08 11:02:00,54.6,39.7,30.03,West,279,1.0,7.0,57,0.00,CLR,CLR,0.00,795.0,WeatherDisplay:10.37,2013-04-08 15:02:00,
2013-04-08 11:07:00,55.3,39.9,30.03,West,269,0.0,4.0,56,0.00,CLR,CLR,0.00,816.0,WeatherDisplay:10.37,2013-04-08 15:07:00,
2013-04-08 11:12:00,56.0,40.0,30.03,WSW,255,1.0,6.0,55,0.00,CLR,CLR,0.00,684.0,WeatherDisplay:10.37,2013-04-08 15:12:00,
2013-04-08 11:17:00,56.0,40.1,30.03,WSW,249,1.0,6.0,55,0.00,CLR,CLR,0.00,506.0,WeatherDisplay:10.37,2013-04-08 15:17:00,
2013-04-08 11:22:00,56.0,40.1,30.03,West,261,0.0,6.0,55,0.00,CLR,CLR,0.00,570.0,WeatherDisplay:10.37,2013-04-08 15:22:00,
2013-04-08 11:27:00,56.4,39.9,30.03,West,273,1.0,6.0,54,0.00,CLR,CLR,0.00,791.0,WeatherDisplay:10.37,2013-04-08 15:27:00,
2013-04-08 11:32:00,56.7,39.8,30.03,West,261,2.0,5.0,53,0.00,CLR,CLR,0.00,798.0,WeatherDisplay:10.37,2013-04-08 15:32:00,
2013-04-08 11:37:00,56.7,39.3,30.03,West,262,0.0,5.0,52,0.00,CLR,CLR,0.00,0.0,WeatherDisplay:10.37,2013-04-08 15:37:00,
2013-04-08 11:47:00,57.2,39.7,30.03,West,272,0.0,5.0,52,0.00,CLR,CLR,0.00,830.0,WeatherDisplay:10.37,2013-04-08 15:47:00,
2013-04-08 11:52:00,57.5,40.0,30.04,WNW,290,1.0,9.0,52,0.00,CLR,CLR,0.00,833.0,WeatherDisplay:10.37,2013-04-08 15:52:00,
2013-04-08 12:02:00,58.2,40.2,30.04,West,271,1.0,5.0,51,0.00,CLR,CLR,0.00,860.0,WeatherDisplay:10.37,2013-04-08 16:02:00,
2013-04-08 12:07:00,58.4,39.3,30.04,West,271,2.0,6.0,49,0.00,CLR,CLR,0.00,861.0,WeatherDisplay:10.37,2013-04-08 16:07:00,
2013-04-08 12:12:00,59.0,40.9,30.03,West,265,5.0,6.0,51,0.00,CLR,CLR,0.00,812.0,WeatherDisplay:10.37,2013-04-08 16:12:00,
2013-04-08 12:17:00,59.0,39.3,30.03,West,268,1.0,6.0,48,0.00,CLR,CLR,0.00,875.0,WeatherDisplay:10.37,2013-04-08 16:17:00,
2013-04-08 12:27:00,60.0,39.7,30.04,West,272,0.0,5.0,47,0.00,CLR,CLR,0.00,882.0,WeatherDisplay:10.37,2013-04-08 16:27:00,
2013-04-08 12:32:00,59.3,39.1,30.03,WSW,253,1.0,3.0,47,0.00,CLR,CLR,0.00,0.0,WeatherDisplay:10.37,2013-04-08 16:32:00,
2013-04-08 12:37:00,60.0,40.8,30.03,West,272,2.0,6.0,49,0.00,CLR,CLR,0.00,884.0,WeatherDisplay:10.37,2013-04-08 16:37:00,
2013-04-08 12:42:00,60.6,40.2,30.03,NW,321,0.0,4.0,47,0.00,CLR,CLR,0.00,893.0,WeatherDisplay:10.37,2013-04-08 16:42:00,
2013-04-08 12:47:00,61.2,40.8,30.02,North,8,2.0,6.0,47,0.00,CLR,CLR,0.00,0.0,WeatherDisplay:10.37,2013-04-08 16:47:00,
2013-04-08 12:52:00,61.5,40.5,30.02,NE,36,0.0,4.0,46,0.00,CLR,CLR,0.00,856.0,WeatherDisplay:10.37,2013-04-08 16:52:00,
2013-04-08 12:57:00,61.9,41.4,30.02,NNW,344,2.0,6.0,47,0.00,CLR,CLR,0.00,779.0,WeatherDisplay:10.37,2013-04-08 16:57:00,
2013-04-08 13:07:00,62.2,41.7,30.02,WNW,283,1.0,4.0,47,0.00,CLR,CLR,0.00,0.0,WeatherDisplay:10.37,2013-04-08 17:07:00,
2013-04-08 13:12:00,61.6,38.8,30.02,WNW,289,0.0,5.0,43,0.00,CLR,CLR,0.00,893.0,WeatherDisplay:10.37,2013-04-08 17:12:00,
2013-04-08 13:17:00,59.9,39.0,30.03,WNW,290,0.0,3.0,46,0.00,CLR,CLR,0.00,891.0,WeatherDisplay:10.37,2013-04-08 17:17:00,
2013-04-08 13:22:00,62.8,40.0,30.03,NW,321,1.0,3.0,43,0.00,CLR,CLR,0.00,889.0,WeatherDisplay:10.37,2013-04-08 17:22:00,
2013-04-08 13:27:00,63.4,39.2,30.03,WNW,301,2.0,5.0,41,0.00,CLR,CLR,0.00,0.0,WeatherDisplay:10.37,2013-04-08 17:27:00,
2013-04-08 13:32:00,61.1,38.4,30.03,WSW,249,0.0,4.0,43,0.00,CLR,CLR,0.00,884.0,WeatherDisplay:10.37,2013-04-08 17:32:00,
2013-04-08 13:37:00,62.3,39.5,30.03,WNW,287,3.0,12.0,43,0.00,CLR,CLR,0.00,881.0,WeatherDisplay:10.37,2013-04-08 17:37:00,
2013-04-08 13:47:00,62.0,38.6,30.02,NNW,327,0.0,5.0,42,0.00,CLR,CLR,0.00,877.0,WeatherDisplay:10.37,2013-04-08 17:47:00,
2013-04-08 13:57:00,62.6,40.3,30.02,West,280,0.0,5.0,44,0.00,CLR,CLR,0.00,867.0,WeatherDisplay:10.37,2013-04-08 17:57:00,
2013-04-08 14:02:00,63.9,39.1,30.03,West,274,1.0,7.0,40,0.00,CLR,CLR,0.00,0.0,WeatherDisplay:10.37,2013-04-08 18:02:00,
2013-04-08 14:07:00,63.5,40.0,30.03,West,275,0.0,4.0,42,0.00,CLR,CLR,0.00,0.0,WeatherDisplay:10.37,2013-04-08 18:07:00,
2013-04-08 14:17:00,61.2,37.9,30.02,West,278,0.0,5.0,42,0.00,CLR,CLR,0.00,842.0,WeatherDisplay:10.37,2013-04-08 18:17:00,
2013-04-08 14:27:00,62.2,36.9,30.02,SW,219,1.0,7.0,39,0.00,CLR,CLR,0.00,0.0,WeatherDisplay:10.37,2013-04-08 18:27:00,
2013-04-08 14:32:00,61.9,37.9,30.02,SSW,202,1.0,5.0,41,0.00,CLR,CLR,0.00,0.0,WeatherDisplay:10.37,2013-04-08 18:32:00,
2013-04-08 14:37:00,62.8,38.1,30.02,WSW,249,1.0,7.0,40,0.00,CLR,CLR,0.00,0.0,WeatherDisplay:10.37,2013-04-08 18:37:00,
2013-04-08 14:47:00,64.2,38.0,30.02,West,274,1.0,6.0,38,0.00,CLR,CLR,0.00,798.0,WeatherDisplay:10.37,2013-04-08 18:47:00,
2013-04-08 14:52:00,64.9,38.0,30.01,West,278,0.0,6.0,37,0.00,CLR,CLR,0.00,0.0,WeatherDisplay:10.37,2013-04-08 18:52:00,
2013-04-08 14:57:00,65.0,38.7,30.01,WNW,287,0.0,5.0,38,0.00,CLR,CLR,0.00,0.0,WeatherDisplay:10.37,2013-04-08 18:57:00,
2013-04-08 15:02:00,64.4,38.2,30.02,West,270,2.0,6.0,38,0.00,CLR,CLR,0.00,0.0,WeatherDisplay:10.37,2013-04-08 19:02:00,
2013-04-08 15:07:00,65.1,38.8,30.02,WNW,286,1.0,6.0,38,0.00,CLR,CLR,0.00,0.0,WeatherDisplay:10.37,2013-04-08 19:07:00,
2013-04-08 15:17:00,64.1,37.3,30.01,West,269,1.0,5.0,37,0.00,CLR,CLR,0.00,0.0,WeatherDisplay:10.37,2013-04-08 19:17:00,
2013-04-08 15:22:00,63.8,37.7,30.01,West,262,1.0,5.0,38,0.00,CLR,CLR,0.00,0.0,WeatherDisplay:10.37,2013-04-08 19:22:00,
2013-04-08 15:27:00,63.8,37.0,30.01,WNW,295,0.0,7.0,37,0.00,CLR,CLR,0.00,0.0,WeatherDisplay:10.37,2013-04-08 19:27:00,
2013-04-08 15:32:00,63.8,37.0,30.01,NW,307,0.0,4.0,37,0.00,CLR,CLR,0.00,0.0,WeatherDisplay:10.37,2013-04-08 19:32:00,
2013-04-08 15:37:00,65.4,37.1,30.01,WNW,295,0.0,6.0,35,0.00,CLR,CLR,0.00,0.0,WeatherDisplay:10.37,2013-04-08 19:37:00,
2013-04-08 15:42:00,65.1,37.5,30.01,NW,311,0.0,5.0,36,0.00,CLR,CLR,0.00,0.0,WeatherDisplay:10.37,2013-04-08 19:42:00,
2013-04-08 15:47:00,64.8,36.5,30.01,WNW,293,1.0,3.0,35,0.00,CLR,CLR,0.00,0.0,WeatherDisplay:10.37,2013-04-08 19:47:00,
2013-04-08 15:52:00,64.4,36.8,30.01,West,272,0.0,4.0,36,0.00,CLR,CLR,0.00,0.0,WeatherDisplay:10.37,2013-04-08 19:52:00,
2013-04-08 16:02:00,64.4,36.8,30.00,West,260,0.0,5.0,36,0.00,CLR,CLR,0.00,0.0,WeatherDisplay:10.37,2013-04-08 20:02:00,
2013-04-08 16:07:00,64.2,38.0,30.00,West,267,0.0,3.0,38,0.00,CLR,CLR,0.00,0.0,WeatherDisplay:10.37,2013-04-08 20:07:00,
2013-04-08 16:12:00,65.4,38.5,30.00,North,3,2.0,4.0,37,0.00,CLR,CLR,0.00,374.0,WeatherDisplay:10.37,2013-04-08 20:12:00,
2013-04-08 16:17:00,66.7,38.9,30.00,North,0,0.0,3.0,36,0.00,CLR,CLR,0.00,0.0,WeatherDisplay:10.37,2013-04-08 20:17:00,
2013-04-08 16:22:00,66.8,39.0,30.00,NNW,331,0.0,1.0,36,0.00,CLR,CLR,0.00,0.0,WeatherDisplay:10.37,2013-04-08 20:22:00,
2013-04-08 16:27:00,66.1,37.7,30.00,NW,325,0.0,3.0,35,0.00,CLR,CLR,0.00,0.0,WeatherDisplay:10.37,2013-04-08 20:27:00,
2013-04-08 16:32:00,64.7,36.4,30.00,NW,322,0.0,0.0,35,0.00,CLR,CLR,0.00,490.0,WeatherDisplay:10.37,2013-04-08 20:32:00,
2013-04-08 16:42:00,63.9,37.1,30.01,West,277,0.0,1.0,37,0.00,CLR,CLR,0.00,496.0,WeatherDisplay:10.37,2013-04-08 20:42:00,
2013-04-08 16:47:00,65.2,37.5,30.00,NW,312,0.0,4.0,36,0.00,CLR,CLR,0.00,0.0,WeatherDisplay:10.37,2013-04-08 20:47:00,
2013-04-08 16:52:00,65.3,39.0,30.00,NW,324,0.0,1.0,38,0.00,CLR,CLR,0.00,0.0,WeatherDisplay:10.37,2013-04-08 20:52:00,
2013-04-08 16:57:00,66.1,37.6,30.00,NW,308,1.0,4.0,35,0.00,CLR,CLR,0.00,0.0,WeatherDisplay:10.37,2013-04-08 20:57:00,
2013-04-08 17:02:00,66.0,36.8,30.00,West,276,2.0,4.0,34,0.00,CLR,CLR,0.00,0.0,WeatherDisplay:10.37,2013-04-08 21:02:00,
2013-04-08 17:07:00,66.0,37.5,30.01,West,262,0.0,3.0,35,0.00,CLR,CLR,0.00,0.0,WeatherDisplay:10.37,2013-04-08 21:07:00,
2013-04-08 17:12:00,65.3,36.9,30.01,West,262,0.0,4.0,35,0.00,CLR,CLR,0.00,0.0,WeatherDisplay:10.37,2013-04-08 21:12:00,
2013-04-08 17:17:00,64.9,36.6,30.01,West,262,0.0,1.0,35,0.00,CLR,CLR,0.00,0.0,WeatherDisplay:10.37,2013-04-08 21:17:00,
2013-04-08 17:22:00,64.7,36.4,30.00,West,262,0.0,0.0,35,0.00,CLR,CLR,0.00,0.0,WeatherDisplay:10.37,2013-04-08 21:22:00,
2013-04-08 17:27:00,65.8,38.0,30.00,NNW,329,0.0,1.0,36,0.00,CLR,CLR,0.00,0.0,WeatherDisplay:10.37,2013-04-08 21:27:00,
2013-04-08 17:32:00,65.2,36.8,30.00,NNE,31,0.0,1.0,35,0.00,CLR,CLR,0.00,111.0,WeatherDisplay:10.37,2013-04-08 21:32:00,
2013-04-08 17:37:00,64.4,36.2,30.00,NNE,14,0.0,0.0,35,0.00,CLR,CLR,0.00,0.0,WeatherDisplay:10.37,2013-04-08 21:37:00,
2013-04-08 17:42:00,64.1,36.6,30.00,South,177,0.0,0.0,36,0.00,CLR,CLR,0.00,0.0,WeatherDisplay:10.37,2013-04-08 21:42:00,
2013-04-08 17:47:00,63.9,36.4,30.00,South,170,0.0,0.0,36,0.00,CLR,CLR,0.00,0.0,WeatherDisplay:10.37,2013-04-08 21:47:00,
2013-04-08 17:57:00,64.0,37.9,30.00,SSE,158,0.0,3.0,38,0.00,CLR,CLR,0.00,0.0,WeatherDisplay:10.37,2013-04-08 21:57:00,
2013-04-08 18:02:00,63.9,37.8,30.00,ESE,123,0.0,4.0,38,0.00,CLR,CLR,0.00,0.0,WeatherDisplay:10.37,2013-04-08 22:02:00,
2013-04-08 18:12:00,63.7,36.3,30.00,ESE,103,0.0,0.0,36,0.00,CLR,CLR,0.00,0.0,WeatherDisplay:10.37,2013-04-08 22:12:00,
2013-04-08 18:17:00,63.5,36.7,30.00,ESE,104,0.0,0.0,37,0.00,CLR,CLR,0.00,0.0,WeatherDisplay:10.37,2013-04-08 22:17:00,
2013-04-08 18:22:00,63.3,37.2,30.01,ESE,104,0.0,0.0,38,0.00,CLR,CLR,0.00,32.0,WeatherDisplay:10.37,2013-04-08 22:22:00,
2013-04-08 18:27:00,63.0,37.0,30.01,ESE,104,0.0,0.0,38,0.00,CLR,CLR,0.00,26.0,WeatherDisplay:10.37,2013-04-08 22:27:00,
2013-04-08 18:32:00,62.8,36.8,30.01,ESE,104,0.0,0.0,38,0.00,CLR,CLR,0.00,0.0,WeatherDisplay:10.37,2013-04-08 22:32:00,
2013-04-08 18:37:00,62.7,36.7,30.01,ESE,104,0.0,0.0,38,0.00,CLR,CLR,0.00,21.0,WeatherDisplay:10.37,2013-04-08 22:37:00,
2013-04-08 18:42:00,62.5,37.2,30.02,ESE,104,0.0,0.0,39,0.00,CLR,CLR,0.00,0.0,WeatherDisplay:10.37,2013-04-08 22:42:00,
2013-04-08 18:47:00,62.2,37.0,30.02,ESE,104,0.0,0.0,39,0.00,CLR,CLR,0.00,0.0,WeatherDisplay:10.37,2013-04-08 22:47:00,
2013-04-08 18:52:00,62.2,36.9,30.02,ESE,104,0.0,0.0,39,0.00,CLR,CLR,0.00,0.0,WeatherDisplay:10.37,2013-04-08 22:52:00,
2013-04-08 19:02:00,62.0,36.7,30.02,ESE,104,0.0,0.0,39,0.00,CLR,CLR,0.00,0.0,WeatherDisplay:10.37,2013-04-08 23:02:00,
2013-04-08 19:07:00,61.8,37.8,30.02,ESE,103,2.0,6.0,41,0.00,CLR,CLR,0.00,0.0,WeatherDisplay:10.37,2013-04-08 23:07:00,
2013-04-08 19:12:00,61.0,39.5,30.03,East,101,3.0,7.0,45,0.00,CLR,CLR,0.00,0.0,WeatherDisplay:10.37,2013-04-08 23:12:00,
2013-04-08 19:22:00,58.9,39.7,30.04,East,97,3.0,9.0,49,0.00,CLR,CLR,0.00,0.0,WeatherDisplay:10.37,2013-04-08 23:22:00,
2013-04-08 19:27:00,57.7,39.2,30.04,East,97,3.0,7.0,50,0.00,CLR,CLR,0.00,0.0,WeatherDisplay:10.37,2013-04-08 23:27:00,
2013-04-08 19:32:00,56.8,38.8,30.04,East,96,2.0,5.0,51,0.00,CLR,CLR,0.00,0.0,WeatherDisplay:10.37,2013-04-08 23:32:00,
2013-04-08 19:37:00,56.0,38.6,30.04,East,95,5.0,9.0,52,0.00,CLR,CLR,0.00,0.0,WeatherDisplay:10.37,2013-04-08 23:37:00,
2013-04-08 19:42:00,55.3,38.5,30.04,East,93,3.0,5.0,53,0.00,CLR,CLR,0.00,0.0,WeatherDisplay:10.37,2013-04-08 23:42:00,
2013-04-08 19:47:00,55.0,39.1,30.04,East,87,2.0,4.0,55,0.00,CLR,CLR,0.00,0.0,WeatherDisplay:10.37,2013-04-08 23:47:00,
2013-04-08 19:52:00,54.7,38.8,30.04,East,83,2.0,4.0,55,0.00,CLR,CLR,0.00,0.0,WeatherDisplay:10.37,2013-04-08 23:52:00,
2013-04-08 19:57:00,54.4,39.0,30.04,East,84,2.0,7.0,56,0.00,CLR,CLR,0.00,0.0,WeatherDisplay:10.37,2013-04-08 23:57:00,
2013-04-08 20:02:00,54.0,38.7,30.04,East,86,2.0,6.0,56,0.00,CLR,CLR,0.00,0.0,WeatherDisplay:10.37,2013-04-09 00:02:00,
2013-04-08 20:07:00,53.7,38.4,30.04,East,92,3.0,5.0,56,0.00,CLR,CLR,0.00,0.0,WeatherDisplay:10.37,2013-04-09 00:07:00,
2013-04-08 20:12:00,53.5,38.6,30.04,East,94,3.0,4.0,57,0.00,CLR,CLR,0.00,0.0,WeatherDisplay:10.37,2013-04-09 00:12:00,
2013-04-08 20:22:00,52.9,38.5,30.04,East,90,2.0,4.0,58,0.00,CLR,CLR,0.00,0.0,WeatherDisplay:10.37,2013-04-09 00:22:00,
2013-04-08 20:27:00,52.7,38.8,30.04,East,88,1.0,4.0,59,0.00,CLR,CLR,0.00,0.0,WeatherDisplay:10.37,2013-04-09 00:27:00,
2013-04-08 20:32:00,52.5,39.0,30.05,East,91,2.0,3.0,60,0.00,CLR,CLR,0.00,0.0,WeatherDisplay:10.37,2013-04-09 00:32:00,
2013-04-08 20:37:00,52.3,38.8,30.05,East,91,0.0,4.0,60,0.00,CLR,CLR,0.00,0.0,WeatherDisplay:10.37,2013-04-09 00:37:00,
2013-04-08 20:42:00,52.2,38.7,30.05,East,89,1.0,3.0,60,0.00,CLR,CLR,0.00,0.0,WeatherDisplay:10.37,2013-04-09 00:42:00,
2013-04-08 20:47:00,52.1,38.6,30.05,East,89,2.0,3.0,60,0.00,CLR,CLR,0.00,0.0,WeatherDisplay:10.37,2013-04-09 00:47:00,
2013-04-08 20:52:00,51.9,38.4,30.05,East,89,1.0,4.0,60,0.00,CLR,CLR,0.00,0.0,WeatherDisplay:10.37,2013-04-09 00:52:00,
2013-04-08 20:57:00,51.8,38.8,30.06,East,94,0.0,3.0,61,0.00,CLR,CLR,0.00,0.0,WeatherDisplay:10.37,2013-04-09 00:57:00,
2013-04-08 21:02:00,51.6,38.6,30.06,ESE,102,0.0,0.0,61,0.00,OVC,OVC,0.00,0.0,WeatherDisplay:10.37,2013-04-09 01:02:00,
2013-04-08 21:07:00,51.5,38.5,30.07,ESE,110,2.0,3.0,61,0.00,OVC,OVC,0.00,0.0,WeatherDisplay:10.37,2013-04-09 01:07:00,
2013-04-08 21:12:00,51.4,38.8,30.06,ESE,115,1.0,3.0,62,0.00,OVC,OVC,0.00,0.0,WeatherDisplay:10.37,2013-04-09 01:12:00,
2013-04-08 21:17:00,51.3,38.7,30.07,ESE,113,0.0,2.0,62,0.00,OVC,OVC,0.00,0.0,WeatherDisplay:10.37,2013-04-09 01:17:00,
2013-04-08 21:22:00,51.2,38.6,30.07,ESE,113,0.0,0.0,62,0.00,OVC,OVC,0.00,0.0,WeatherDisplay:10.37,2013-04-09 01:22:00,
2013-04-08 21:27:00,51.1,38.5,30.06,ESE,106,0.0,0.0,62,0.00,OVC,OVC,0.00,0.0,WeatherDisplay:10.37,2013-04-09 01:27:00,
2013-04-08 21:32:00,51.0,38.8,30.06,East,95,0.0,0.0,63,0.00,OVC,OVC,0.00,0.0,WeatherDisplay:10.37,2013-04-09 01:32:00,
2013-04-08 21:37:00,50.8,38.7,30.06,East,87,0.0,1.0,63,0.00,OVC,OVC,0.00,0.0,WeatherDisplay:10.37,2013-04-09 01:37:00,
2013-04-08 21:42:00,50.6,38.5,30.06,East,90,0.0,0.0,63,0.00,OVC,OVC,0.00,0.0,WeatherDisplay:10.37,2013-04-09 01:42:00,
2013-04-08 21:52:00,50.4,38.7,30.06,ENE,62,0.0,2.0,64,0.00,OVC,OVC,0.00,0.0,WeatherDisplay:10.37,2013-04-09 01:52:00,
2013-04-08 21:57:00,50.1,38.8,30.06,ENE,60,0.0,0.0,65,0.00,OVC,OVC,0.00,0.0,WeatherDisplay:10.37,2013-04-09 01:57:00,
2013-04-08 22:02:00,49.9,39.0,30.06,East,80,2.0,3.0,66,0.00,OVC,OVC,0.00,0.0,WeatherDisplay:10.37,2013-04-09 02:02:00,
2013-04-08 22:07:00,49.8,38.9,30.06,East,87,0.0,2.0,66,0.00,OVC,OVC,0.00,0.0,WeatherDisplay:10.37,2013-04-09 02:07:00,
2013-04-08 22:12:00,49.8,38.9,30.06,East,87,0.0,0.0,66,0.00,OVC,OVC,0.00,0.0,WeatherDisplay:10.37,2013-04-09 02:12:00,
2013-04-08 22:17:00,49.7,38.8,30.07,East,87,0.0,0.0,66,0.00,OVC,OVC,0.00,0.0,WeatherDisplay:10.37,2013-04-09 02:17:00,
2013-04-08 22:22:00,49.6,39.1,30.06,East,87,0.0,0.0,67,0.00,OVC,OVC,0.00,0.0,WeatherDisplay:10.37,2013-04-09 02:22:00,
2013-04-08 22:27:00,49.6,39.1,30.06,East,87,0.0,0.0,67,0.00,OVC,OVC,0.00,0.0,WeatherDisplay:10.37,2013-04-09 02:27:00,
2013-04-08 22:32:00,49.5,39.0,30.06,East,87,0.0,1.0,67,0.00,OVC,OVC,0.00,0.0,WeatherDisplay:10.37,2013-04-09 02:32:00,
2013-04-08 22:37:00,49.4,38.9,30.07,East,87,0.0,0.0,67,0.00,OVC,OVC,0.00,0.0,WeatherDisplay:10.37,2013-04-09 02:37:00,
2013-04-08 22:42:00,49.4,38.9,30.06,East,87,0.0,0.0,67,0.00,OVC,OVC,0.00,0.0,WeatherDisplay:10.37,2013-04-09 02:42:00,
2013-04-08 22:47:00,49.4,39.3,30.06,East,87,0.0,0.0,68,0.00,OVC,OVC,0.00,0.0,WeatherDisplay:10.37,2013-04-09 02:47:00,
2013-04-08 22:52:00,49.3,39.2,30.06,East,87,2.0,3.0,68,0.00,OVC,OVC,0.00,0.0,WeatherDisplay:10.37,2013-04-09 02:52:00,
2013-04-08 22:57:00,49.3,39.2,30.05,East,88,0.0,2.0,68,0.00,OVC,OVC,0.00,0.0,WeatherDisplay:10.37,2013-04-09 02:57:00,
2013-04-08 23:07:00,49.2,39.5,30.05,East,91,0.0,1.0,69,0.00,OVC,OVC,0.00,0.0,WeatherDisplay:10.37,2013-04-09 03:07:00,
2013-04-08 23:12:00,49.2,39.4,30.05,East,91,0.0,0.0,69,0.00,OVC,OVC,0.00,0.0,WeatherDisplay:10.37,2013-04-09 03:12:00,
2013-04-08 23:17:00,49.1,39.4,30.05,East,91,0.0,0.0,69,0.00,OVC,OVC,0.00,0.0,WeatherDisplay:10.37,2013-04-09 03:17:00,
2013-04-08 23:22:00,49.1,39.4,30.05,East,91,0.0,0.0,69,0.00,OVC,OVC,0.00,0.0,WeatherDisplay:10.37,2013-04-09 03:22:00,
2013-04-08 23:27:00,49.0,39.3,30.05,East,91,0.0,1.0,69,0.00,OVC,OVC,0.00,0.0,WeatherDisplay:10.37,2013-04-09 03:27:00,
2013-04-08 23:32:00,49.0,39.3,30.05,East,91,0.0,0.0,69,0.00,OVC,OVC,0.00,0.0,WeatherDisplay:10.37,2013-04-09 03:32:00,
2013-04-08 23:37:00,49.0,39.6,30.05,East,91,0.0,0.0,70,0.00,OVC,OVC,0.00,0.0,WeatherDisplay:10.37,2013-04-09 03:37:00,
2013-04-08 23:42:00,49.0,39.3,30.05,East,91,0.0,0.0,69,0.00,OVC,OVC,0.00,0.0,WeatherDisplay:10.37,2013-04-09 03:42:00,
2013-04-08 23:47:00,49.0,39.6,30.05,East,91,0.0,0.0,70,0.00,OVC,OVC,0.00,0.0,WeatherDisplay:10.37,2013-04-09 03:47:00,
2013-04-08 23:52:00,49.0,39.6,30.05,East,91,0.0,0.0,70,0.00,OVC,OVC,0.00,0.0,WeatherDisplay:10.37,2013-04-09 03:52:00,
2013-04-08 23:57:00,49.0,39.6,30.05,East,91,0.0,0.0,70,0.00,OVC,OVC,0.00,0.0,WeatherDisplay:10.37,2013-04-09 03:57:00,